Location: Bluff Heights
(33.7692°N, 118.1592°W)
Time: 09:21:07
(UTC+00:00)

Hubble Space Telescope - Visible Passes

Search period start: 08 December 2022 00:00
Search period end: 18 December 2022 00:00
Orbit: 530 x 534 km, 28.5° (Epoch: 07 December)

Date Brightness Start Highest point End Pass type
(mag) Time Alt. Az. Time Alt. Az. Time Alt. Az.
08 Dec 2.6 12:59:52 18° SSW 13:01:38 25° SSE 13:05:00 10° ESE visible
09 Dec 2.2 12:48:15 26° S 12:48:54 28° SSE 12:52:26 10° ESE visible
10 Dec 2.2 12:36:32 30° SSE 12:36:32 30° SSE 12:39:49 10° ESE visible
10 Dec 1.9 14:13:05 10° WSW 14:16:54 39° S 14:20:43 10° ESE visible
11 Dec 2.6 12:24:44 27° SE 12:24:44 27° SE 12:27:11 10° ESE visible
11 Dec 1.9 14:00:24 10° WSW 14:04:12 37° S 14:07:59 10° ESE visible
12 Dec 3.1 12:12:53 21° ESE 12:12:53 21° ESE 12:14:31 10° ESE visible
12 Dec 1.9 13:48:06 12° WSW 13:51:28 36° S 13:55:14 10° ESE visible
13 Dec 3.6 12:00:59 15° ESE 12:00:59 15° ESE 12:01:50 10° ESE visible
13 Dec 2.0 13:36:11 17° WSW 13:38:45 33° S 13:42:27 10° SE visible
14 Dec 4.1 11:49:03 10° ESE 11:49:03 10° ESE 11:49:07 10° ESE visible
14 Dec 2.0 13:24:16 22° SW 13:26:00 31° S 13:29:38 10° SE visible
15 Dec 2.1 13:12:19 25° SW 13:13:16 28° SSW 13:16:46 10° SE visible
16 Dec 2.3 13:00:23 25° SSW 13:00:30 25° SSW 13:03:51 10° SE visible
17 Dec 2.7 12:48:27 21° S 12:48:27 21° S 12:50:53 10° SE visible
